McCook, NE

7:47 AM CST on December 13, 2017 (GMT -0600)
McCook Municipal

Weather History for KMCK - December, 2011

Change the Weather History Date:

Friday, December 9, 2011

  Actual Average Record
Temperature  
Mean Temperature 22 °F 29 °F  
Max Temperature 34 °F 42 °F 74 °F (1939)
Min Temperature 9 °F 16 °F -14 °F (1920)
Degree Days  
Heating Degree Days 43    
Moisture  
Dew Point 18 °F    
Average Humidity 92    
Maximum Humidity 100    
Minimum Humidity 75    
Precipitation  
Precipitation 0.00 in 0.02 in 0.46 in (1987)
Month to date precipitation 0.41 0.20  
Year to date precipitation 19.61 22.09  
Sea Level Pressure  
Sea Level Pressure 30.38 in    
Wind  
Wind Speed 4 mph (SSE)    
Max Wind Speed 12 mph    
Max Gust Speed -    
Visibility 4 miles    
Events Fog    
T = Trace of Precipitation, MM = Missing Value Source: NWS Daily Summary

Daily Weather History Graph

Daily Weather History Graph

Search for Another Location

Airport or City:

Trip Planner

Search our weather history database for the weather conditions in past years. The results will help you decide how hot, cold, wet, or windy it might be!

Date:

Astronomy

Dec. 09, 2011 Rise Set
Actual Time 7:52 AM CST 5:16 PM CST
Civil Twilight 7:22 AM CST 5:46 PM CST
Nautical Twilight 6:48 AM CST 6:20 PM CST
Astronomical Twilight 6:15 AM CST 6:53 PM CST
Moon 4:41 PM CST (12/9) 7:02 AM CST (12/9)
Length of Visible Light 10h 24m
Length of Day
9h 23m
Waxing Gibbous, 99% of the Moon is Illuminated
Dec 9
Waxing Gibbous
Dec 10
Full
Dec 17
Last Quarter
Dec 24
New
Jan 1
First Quarter

Hourly Weather History & Observations

Time (CST) Temp. Windchill Dew Point Humidity Pressure Visibility Wind Dir Wind Speed Gust Speed Precip Events Conditions
12:53 AM 21.9 °F 17.2 °F 19.9 °F 92% 30.37 in 10.0 mi East 3.5 mph - N/A   Overcast
1:53 AM 21.9 °F 17.2 °F 19.9 °F 92% 30.36 in 9.0 mi SW 3.5 mph - N/A   Overcast
2:41 AM 21.2 °F - 21.2 °F 100% 30.25 in 6.0 mi Calm Calm - N/A   Overcast
2:53 AM 21.9 °F - 21.0 °F 96% 30.34 in 4.0 mi Calm Calm - N/A   Overcast
2:56 AM 21.2 °F - 21.2 °F 100% 30.25 in 1.5 mi Calm Calm - N/A   Overcast
3:07 AM 21.2 °F - 21.2 °F 100% 30.25 in 0.5 mi Calm Calm - N/A Fog Light Freezing Fog
3:53 AM 21.9 °F 17.2 °F 21.0 °F 96% 30.35 in 1.0 mi SW 3.5 mph - N/A   Overcast
4:03 AM 21.2 °F 11.7 °F 21.2 °F 100% 30.26 in 3.0 mi WSW 8.1 mph - N/A   Overcast
4:38 AM 21.2 °F 12.6 °F 21.2 °F 100% 30.25 in 2.0 mi WSW 6.9 mph - N/A   Overcast
4:53 AM 21.9 °F 11.7 °F 21.0 °F 96% 30.34 in 2.5 mi WSW 9.2 mph - N/A   Overcast
5:06 AM 23.0 °F 13.9 °F 21.2 °F 93% 30.25 in 3.0 mi SW 8.1 mph - N/A   Overcast
5:14 AM 23.0 °F 14.7 °F 21.2 °F 93% 30.25 in 2.5 mi SW 6.9 mph - N/A   Overcast
5:26 AM 23.0 °F 18.4 °F 21.2 °F 93% 30.25 in 4.0 mi SW 3.5 mph - N/A   Overcast
5:53 AM 23.0 °F 13.1 °F 21.9 °F 96% 30.35 in 6.0 mi West 9.2 mph - N/A   Overcast
6:53 AM 23.0 °F 11.7 °F 21.9 °F 96% 30.36 in 6.0 mi WSW 11.5 mph - N/A   Overcast
7:53 AM 21.9 °F 15.7 °F 21.0 °F 96% 30.39 in 4.0 mi SW 4.6 mph - N/A   Overcast
8:53 AM 19.9 °F 10.1 °F 18.0 °F 92% 30.41 in 7.0 mi WSW 8.1 mph - N/A   Overcast
9:53 AM 21.0 °F 9.9 °F 19.0 °F 92% 30.43 in 7.0 mi WSW 10.4 mph - N/A   Overcast
10:53 AM 24.1 °F 16.0 °F 21.0 °F 88% 30.45 in 7.0 mi West 6.9 mph - N/A   Overcast
11:53 AM 27.0 °F 20.5 °F 23.0 °F 85% 30.47 in 7.0 mi West 5.8 mph - N/A   Partly Cloudy
12:53 PM 32.0 °F - 26.6 °F 80% 30.35 in 6.0 mi Calm Calm - N/A   Haze
1:53 PM 32.0 °F 24.2 °F 25.0 °F 75% 30.43 in 8.0 mi NE 9.2 mph - N/A   Clear
2:53 PM 30.0 °F 22.4 °F 23.0 °F 75% 30.44 in 8.0 mi ENE 8.1 mph - N/A   Clear
3:53 PM 28.0 °F 20.8 °F 21.0 °F 75% 30.45 in 9.0 mi ENE 6.9 mph - N/A   Clear
4:53 PM 24.1 °F 16.0 °F 19.9 °F 84% 30.48 in 7.0 mi ESE 6.9 mph - N/A   Clear
5:53 PM 19.9 °F 11.1 °F 17.1 °F 89% 30.48 in 8.0 mi ESE 6.9 mph - N/A   Clear
6:53 PM 17.1 °F 8.7 °F 16.0 °F 96% 30.49 in 7.0 mi SE 5.8 mph - N/A   Clear
7:53 PM 15.1 °F 6.4 °F 12.9 °F 91% 30.49 in 5.0 mi East 5.8 mph - N/A   Clear
8:50 PM 12.2 °F 6.1 °F 10.4 °F 92% 30.38 in 2.0 mi East 3.5 mph - N/A   Clear
8:53 PM 12.9 °F 5.2 °F 10.9 °F 92% 30.51 in 2.5 mi East 4.6 mph - N/A   Clear
9:02 PM 12.2 °F 4.3 °F 10.4 °F 92% 30.38 in 1.0 mi ENE 4.6 mph - N/A   Clear
9:23 PM 12.2 °F 4.3 °F 12.2 °F 100% 30.38 in 2.0 mi ENE 4.6 mph - N/A   Clear
9:44 PM 12.2 °F 6.1 °F 12.2 °F 100% 30.38 in 1.2 mi East 3.5 mph - N/A   Clear
9:50 PM 12.2 °F 6.1 °F 12.2 °F 100% 30.38 in 0.5 mi East 3.5 mph - N/A Fog Light Freezing Fog
9:53 PM 12.9 °F 6.9 °F 12.0 °F 96% 30.51 in 0.2 mi East 3.5 mph - N/A Fog Light Freezing Fog
10:26 PM 12.2 °F - 12.2 °F 100% 30.37 in 0.2 mi Calm Calm - N/A Fog Light Freezing Fog
10:53 PM 12.0 °F - 10.0 °F 92% 30.51 in 0.2 mi Calm Calm - N/A Fog Light Freezing Fog
11:53 PM 9.0 °F - 6.1 °F 88% 30.51 in 0.2 mi Calm Calm - N/A Fog Light Freezing Fog